Time,TemperatureF,DewpointF,PressureIn,WindDirection,WindDirectionDegrees,WindSpeedMPH,WindSpeedGustMPH,Humidity,HourlyPrecipIn,Conditions,Clouds,dailyrainin,SoftwareType,DateUTC
2013-07-12 00:00:00,52.0,43.7,29.96,North,0,0.0,0.0,73,0.00,,,0.00,WUHU216HW,2013-07-12 07:00:00,
2013-07-12 00:05:00,52.0,43.7,29.96,North,0,0.0,0.0,73,0.00,,,0.00,WUHU216HW,2013-07-12 07:05:00,
2013-07-12 00:30:00,50.9,43.3,29.97,NW,315,0.2,0.2,75,0.00,,,0.00,WUHU216HW,2013-07-12 07:30:00,
2013-07-12 00:35:00,50.9,43.3,29.97,NW,315,0.2,0.2,75,0.00,,,0.00,WUHU216HW,2013-07-12 07:35:00,
2013-07-12 01:00:00,50.2,43.3,29.97,NW,315,0.2,0.2,77,0.00,,,0.00,WUHU216HW,2013-07-12 08:00:00,
2013-07-12 01:05:00,50.2,43.3,29.97,NW,315,0.2,0.2,77,0.00,,,0.00,WUHU216HW,2013-07-12 08:05:00,
2013-07-12 01:30:00,49.4,42.9,29.96,NNW,338,0.0,0.0,78,0.00,,,0.00,WUHU216HW,2013-07-12 08:30:00,
2013-07-12 01:35:00,49.4,42.9,29.96,NNW,338,0.0,0.0,78,0.00,,,0.00,WUHU216HW,2013-07-12 08:35:00,
2013-07-12 02:00:00,48.9,43.0,29.96,North,0,0.4,0.4,80,0.00,,,0.00,WUHU216HW,2013-07-12 09:00:00,
2013-07-12 02:05:00,48.9,43.0,29.96,North,0,0.4,0.4,80,0.00,,,0.00,WUHU216HW,2013-07-12 09:05:00,
2013-07-12 02:30:00,48.2,42.7,29.96,NNW,338,0.0,0.0,81,0.00,,,0.00,WUHU216HW,2013-07-12 09:30:00,
2013-07-12 02:35:00,48.2,42.7,29.96,NNW,338,0.0,0.0,81,0.00,,,0.00,WUHU216HW,2013-07-12 09:35:00,
2013-07-12 03:00:00,47.8,42.6,29.96,NNE,23,0.0,0.0,82,0.00,,,0.00,WUHU216HW,2013-07-12 10:00:00,
2013-07-12 03:05:00,47.8,42.6,29.96,NNE,23,0.0,0.0,82,0.00,,,0.00,WUHU216HW,2013-07-12 10:05:00,
2013-07-12 03:30:00,47.8,42.9,29.96,NNW,338,0.0,0.0,83,0.00,,,0.00,WUHU216HW,2013-07-12 10:30:00,
2013-07-12 03:35:00,47.8,42.9,29.96,NNW,338,0.0,0.0,83,0.00,,,0.00,WUHU216HW,2013-07-12 10:35:00,
2013-07-12 04:00:00,48.0,43.1,29.96,North,0,0.0,0.0,83,0.00,,,0.00,WUHU216HW,2013-07-12 11:00:00,
2013-07-12 04:05:00,48.0,43.1,29.96,North,0,0.0,0.0,83,0.00,,,0.00,WUHU216HW,2013-07-12 11:05:00,
2013-07-12 04:30:00,48.2,43.9,29.96,NNW,338,0.2,0.2,85,0.00,,,0.00,WUHU216HW,2013-07-12 11:30:00,
2013-07-12 04:35:00,48.2,43.9,29.96,NNW,338,0.2,0.2,85,0.00,,,0.00,WUHU216HW,2013-07-12 11:35:00,
2013-07-12 05:00:00,48.5,44.2,29.96,NNW,338,0.4,0.4,85,0.00,,,0.00,WUHU216HW,2013-07-12 12:00:00,
2013-07-12 05:05:00,48.5,44.2,29.96,NNW,338,0.4,0.4,85,0.00,,,0.00,WUHU216HW,2013-07-12 12:05:00,
2013-07-12 05:30:00,48.7,44.7,29.96,NW,315,0.4,0.4,86,0.00,,,0.00,WUHU216HW,2013-07-12 12:30:00,
2013-07-12 05:35:00,48.7,44.7,29.96,NW,315,0.4,0.4,86,0.00,,,0.00,WUHU216HW,2013-07-12 12:35:00,
2013-07-12 06:00:00,48.9,44.9,29.95,NNW,338,0.0,0.0,86,0.00,,,0.00,WUHU216HW,2013-07-12 13:00:00,
2013-07-12 06:05:00,48.9,44.9,29.95,NNW,338,0.0,0.0,86,0.00,,,0.00,WUHU216HW,2013-07-12 13:05:00,
2013-07-12 06:30:00,49.3,45.3,29.95,WNW,293,0.0,0.0,86,0.00,,,0.00,WUHU216HW,2013-07-12 13:30:00,
2013-07-12 06:35:00,49.3,45.3,29.95,WNW,293,0.0,0.0,86,0.00,,,0.00,WUHU216HW,2013-07-12 13:35:00,
2013-07-12 07:00:00,50.0,46.0,29.95,NNW,338,0.0,0.0,86,0.00,,,0.00,WUHU216HW,2013-07-12 14:00:00,
2013-07-12 07:05:00,50.0,46.0,29.95,NNW,338,0.0,0.0,86,0.00,,,0.00,WUHU216HW,2013-07-12 14:05:00,
2013-07-12 07:30:00,50.9,46.8,29.96,NW,315,0.0,0.0,86,0.00,,,0.00,WUHU216HW,2013-07-12 14:30:00,
2013-07-12 07:35:00,50.9,46.8,29.96,NW,315,0.0,0.0,86,0.00,,,0.00,WUHU216HW,2013-07-12 14:35:00,
2013-07-12 08:00:00,52.0,47.3,29.96,SW,225,0.0,0.0,84,0.00,,,0.00,WUHU216HW,2013-07-12 15:00:00,
2013-07-12 08:05:00,52.0,47.3,29.96,SW,225,0.0,0.0,84,0.00,,,0.00,WUHU216HW,2013-07-12 15:05:00,
2013-07-12 08:30:00,52.5,47.2,29.95,NW,315,0.2,0.2,82,0.00,,,0.00,WUHU216HW,2013-07-12 15:30:00,
2013-07-12 08:35:00,52.5,47.2,29.95,NW,315,0.2,0.2,82,0.00,,,0.00,WUHU216HW,2013-07-12 15:35:00,
2013-07-12 09:00:00,53.2,47.6,29.95,South,180,1.3,1.3,81,0.00,,,0.00,WUHU216HW,2013-07-12 16:00:00,
2013-07-12 09:05:00,53.2,47.6,29.95,South,180,1.3,1.3,81,0.00,,,0.00,WUHU216HW,2013-07-12 16:05:00,
2013-07-12 09:32:00,54.3,48.3,29.95,SW,225,2.5,2.5,80,0.00,,,0.00,WUHU216HW,2013-07-12 16:32:00,
2013-07-12 09:37:00,54.3,48.3,29.95,SW,225,2.5,2.5,80,0.00,,,0.00,WUHU216HW,2013-07-12 16:37:00,
2013-07-12 09:42:00,54.3,48.3,29.95,SW,225,2.5,2.5,80,0.00,,,0.00,WUHU216HW,2013-07-12 16:42:00,
2013-07-12 10:00:00,55.0,48.7,29.96,SSW,203,3.8,3.8,79,0.00,,,0.00,WUHU216HW,2013-07-12 17:00:00,
2013-07-12 10:05:00,55.0,48.7,29.96,SSW,203,1.8,3.8,79,0.00,,,0.00,WUHU216HW,2013-07-12 17:05:00,
2013-07-12 10:10:00,55.0,48.7,29.95,SSW,203,2.5,3.4,79,0.00,,,0.00,WUHU216HW,2013-07-12 17:10:00,
2013-07-12 10:15:00,55.2,48.9,29.95,SSW,203,2.0,3.4,79,0.00,,,0.00,WUHU216HW,2013-07-12 17:15:00,
2013-07-12 10:19:00,55.2,48.5,29.96,SW,225,2.0,3.8,78,0.00,,,0.00,WUHU216HW,2013-07-12 17:19:00,
2013-07-12 10:20:00,55.2,48.5,29.96,SW,225,4.0,4.0,78,0.00,,,0.00,WUHU216HW,2013-07-12 17:20:00,
2013-07-12 10:21:00,55.2,48.5,29.96,SW,225,3.6,4.0,78,0.00,,,0.00,WUHU216HW,2013-07-12 17:21:00,
2013-07-12 10:22:00,55.2,48.5,29.96,SW,225,3.4,4.0,78,0.00,,,0.00,WUHU216HW,2013-07-12 17:22:00,
2013-07-12 10:23:00,55.4,48.7,29.96,SW,225,2.9,4.0,78,0.00,,,0.00,WUHU216HW,2013-07-12 17:23:00,
2013-07-12 10:24:00,55.2,48.5,29.96,SW,225,2.2,4.0,78,0.00,,,0.00,WUHU216HW,2013-07-12 17:24:00,
2013-07-12 10:25:00,55.4,48.7,29.96,SW,225,2.2,4.0,78,0.00,,,0.00,WUHU216HW,2013-07-12 17:25:00,
2013-07-12 10:26:00,55.4,48.4,29.96,SW,225,1.8,4.0,77,0.00,,,0.00,WUHU216HW,2013-07-12 17:26:00,
2013-07-12 10:27:00,55.4,48.4,29.96,SW,225,1.1,4.0,77,0.00,,,0.00,WUHU216HW,2013-07-12 17:27:00,
2013-07-12 10:28:00,55.4,48.4,29.96,SW,225,0.7,4.0,77,0.00,,,0.00,WUHU216HW,2013-07-12 17:28:00,
2013-07-12 10:29:00,55.4,48.4,29.96,SW,225,0.0,4.0,77,0.00,,,0.00,WUHU216HW,2013-07-12 17:29:00,
2013-07-12 10:30:00,55.4,48.4,29.96,SW,225,0.7,3.8,77,0.00,,,0.00,WUHU216HW,2013-07-12 17:30:00,
2013-07-12 10:31:00,55.4,48.4,29.96,SW,225,3.8,3.8,77,0.00,,,0.00,WUHU216HW,2013-07-12 17:31:00,
2013-07-12 10:32:00,55.4,48.4,29.96,SW,225,3.1,3.8,77,0.00,,,0.00,WUHU216HW,2013-07-12 17:32:00,
2013-07-12 10:33:00,55.4,48.4,29.96,SW,225,3.4,3.8,77,0.00,,,0.00,WUHU216HW,2013-07-12 17:33:00,
2013-07-12 10:34:00,55.4,48.4,29.96,SW,225,0.0,3.8,77,0.00,,,0.00,WUHU216HW,2013-07-12 17:34:00,
2013-07-12 10:35:00,55.6,48.6,29.96,SW,225,1.8,3.8,77,0.00,,,0.00,WUHU216HW,2013-07-12 17:35:00,
2013-07-12 10:36:00,55.4,48.0,29.96,SW,225,1.1,3.8,76,0.00,,,0.00,WUHU216HW,2013-07-12 17:36:00,
2013-07-12 10:37:00,55.6,48.2,29.96,SW,225,4.3,4.3,76,0.00,,,0.00,WUHU216HW,2013-07-12 17:37:00,
2013-07-12 10:38:00,55.4,48.0,29.96,SW,225,4.5,4.9,76,0.00,,,0.00,WUHU216HW,2013-07-12 17:38:00,
2013-07-12 10:39:00,55.6,48.2,29.96,SW,225,3.1,4.9,76,0.00,,,0.00,WUHU216HW,2013-07-12 17:39:00,
2013-07-12 10:40:00,55.6,48.2,29.96,SW,225,2.2,4.9,76,0.00,,,0.00,WUHU216HW,2013-07-12 17:40:00,
2013-07-12 10:41:00,55.6,48.2,29.96,SW,225,1.1,4.9,76,0.00,,,0.00,WUHU216HW,2013-07-12 17:41:00,
2013-07-12 10:42:00,55.6,48.2,29.96,SW,225,1.8,4.9,76,0.00,,,0.00,WUHU216HW,2013-07-12 17:42:00,
2013-07-12 10:43:00,55.6,48.2,29.96,SW,225,2.5,4.9,76,0.00,,,0.00,WUHU216HW,2013-07-12 17:43:00,
2013-07-12 10:49:00,55.6,48.2,29.96,SW,225,1.8,3.1,76,0.00,,,0.00,WUHU216HW,2013-07-12 17:49:00,
2013-07-12 10:54:00,55.6,48.2,29.96,SSE,158,1.1,4.9,76,0.00,,,0.00,WUHU216HW,2013-07-12 17:54:00,
2013-07-12 11:00:00,55.7,48.3,29.96,SW,225,3.6,3.8,76,0.00,,,0.00,WUHU216HW,2013-07-12 18:00:00,
2013-07-12 11:05:00,55.9,48.9,29.96,SSE,158,0.4,3.8,77,0.00,,,0.00,WUHU216HW,2013-07-12 18:05:00,
2013-07-12 11:10:00,56.1,49.1,29.96,SSW,203,2.2,3.4,77,0.00,,,0.00,WUHU216HW,2013-07-12 18:10:00,
2013-07-12 11:16:00,56.1,49.1,29.97,SSW,203,2.9,3.8,77,0.00,,,0.00,WUHU216HW,2013-07-12 18:16:00,
2013-07-12 11:21:00,56.3,48.9,29.96,SW,225,2.0,3.8,76,0.00,,,0.00,WUHU216HW,2013-07-12 18:21:00,
2013-07-12 11:26:00,56.3,48.9,29.97,SW,225,2.2,3.8,76,0.00,,,0.00,WUHU216HW,2013-07-12 18:26:00,
2013-07-12 11:31:00,56.3,49.3,29.97,South,180,0.7,3.4,77,0.00,,,0.00,WUHU216HW,2013-07-12 18:31:00,
2013-07-12 11:37:00,56.5,49.1,29.97,SSW,203,1.8,4.0,76,0.00,,,0.00,WUHU216HW,2013-07-12 18:37:00,
2013-07-12 11:42:00,56.5,49.1,29.97,SW,225,0.9,4.0,76,0.00,,,0.00,WUHU216HW,2013-07-12 18:42:00,
2013-07-12 11:47:00,56.5,49.5,29.97,SW,225,4.0,4.0,77,0.00,,,0.00,WUHU216HW,2013-07-12 18:47:00,
2013-07-12 11:52:00,56.5,49.1,29.98,South,180,2.5,4.3,76,0.00,,,0.00,WUHU216HW,2013-07-12 18:52:00,
2013-07-12 11:57:00,56.5,49.5,29.98,SSW,203,1.6,4.3,77,0.00,,,0.00,WUHU216HW,2013-07-12 18:57:00,
2013-07-12 12:03:00,56.6,49.5,29.98,SW,225,2.0,4.3,77,0.00,,,0.00,WUHU216HW,2013-07-12 19:03:00,
2013-07-12 12:08:00,56.8,49.7,29.98,SW,225,4.0,4.7,77,0.00,,,0.00,WUHU216HW,2013-07-12 19:08:00,
2013-07-12 12:13:00,56.8,49.7,29.98,SSW,203,1.8,4.7,77,0.00,,,0.00,WUHU216HW,2013-07-12 19:13:00,
2013-07-12 12:19:00,56.8,49.7,29.98,SW,225,1.8,3.4,77,0.00,,,0.00,WUHU216HW,2013-07-12 19:19:00,
2013-07-12 12:24:00,56.8,49.4,29.98,SW,225,0.9,3.8,76,0.00,,,0.00,WUHU216HW,2013-07-12 19:24:00,
2013-07-12 12:29:00,57.0,49.9,29.98,SW,225,2.5,3.8,77,0.00,,,0.00,WUHU216HW,2013-07-12 19:29:00,
2013-07-12 12:34:00,57.2,49.8,29.98,South,180,1.8,3.4,76,0.00,,,0.00,WUHU216HW,2013-07-12 19:34:00,
2013-07-12 12:39:00,57.2,49.8,29.98,SW,225,2.9,3.4,76,0.00,,,0.00,WUHU216HW,2013-07-12 19:39:00,
2013-07-12 12:44:00,57.2,49.8,29.98,SW,225,1.6,3.4,76,0.00,,,0.00,WUHU216HW,2013-07-12 19:44:00,
2013-07-12 12:49:00,57.5,50.1,29.98,South,180,1.8,2.9,76,0.00,,,0.00,WUHU216HW,2013-07-12 19:49:00,
2013-07-12 12:54:00,57.5,50.1,29.98,SW,225,1.8,2.9,76,0.00,,,0.00,WUHU216HW,2013-07-12 19:54:00,
2013-07-12 12:59:00,57.9,50.1,29.98,SW,225,2.0,3.1,75,0.00,,,0.00,WUHU216HW,2013-07-12 19:59:00,
2013-07-12 13:04:00,57.9,49.8,29.98,SW,225,2.0,4.0,74,0.00,,,0.00,WUHU216HW,2013-07-12 20:04:00,
2013-07-12 13:09:00,58.3,50.2,29.98,SSW,203,4.0,4.7,74,0.00,,,0.00,WUHU216HW,2013-07-12 20:09:00,
2013-07-12 13:14:00,58.6,50.1,29.98,SW,225,4.7,4.7,73,0.00,,,0.00,WUHU216HW,2013-07-12 20:14:00,
2013-07-12 13:19:00,59.0,50.1,29.98,SW,225,2.5,4.7,72,0.00,,,0.00,WUHU216HW,2013-07-12 20:19:00,
2013-07-12 13:24:00,59.2,50.3,29.98,SW,225,2.7,4.9,72,0.00,,,0.00,WUHU216HW,2013-07-12 20:24:00,
2013-07-12 13:30:00,59.5,50.2,29.98,SW,225,2.2,5.6,71,0.00,,,0.00,WUHU216HW,2013-07-12 20:30:00,
2013-07-12 13:35:00,59.9,50.6,29.98,SW,225,2.9,5.6,71,0.00,,,0.00,WUHU216HW,2013-07-12 20:35:00,
2013-07-12 13:40:00,60.2,50.9,29.98,SW,225,2.5,4.0,71,0.00,,,0.00,WUHU216HW,2013-07-12 20:40:00,
2013-07-12 13:45:00,60.4,51.1,29.98,SSW,203,1.6,4.0,71,0.00,,,0.00,WUHU216HW,2013-07-12 20:45:00,
2013-07-12 13:50:00,60.6,50.9,29.97,SSE,158,6.3,6.3,70,0.00,,,0.00,WUHU216HW,2013-07-12 20:50:00,
2013-07-12 13:55:00,60.8,51.1,29.97,SSW,203,4.9,6.9,70,0.00,,,0.00,WUHU216HW,2013-07-12 20:55:00,
2013-07-12 14:01:00,60.6,50.9,29.97,SW,225,4.0,6.9,70,0.00,,,0.00,WUHU216HW,2013-07-12 21:01:00,
2013-07-12 14:06:00,60.8,50.7,29.97,SW,225,4.3,5.6,69,0.00,,,0.00,WUHU216HW,2013-07-12 21:06:00,
2013-07-12 14:11:00,60.8,50.7,29.97,SW,225,1.1,5.6,69,0.00,,,0.00,WUHU216HW,2013-07-12 21:11:00,
2013-07-12 14:16:00,61.0,51.3,29.97,SW,225,6.3,6.7,70,0.00,,,0.00,WUHU216HW,2013-07-12 21:16:00,
2013-07-12 14:22:00,61.1,51.4,29.98,SW,225,5.4,6.7,70,0.00,,,0.00,WUHU216HW,2013-07-12 21:22:00,
2013-07-12 14:27:00,61.3,51.2,29.98,SSW,203,4.9,5.8,69,0.00,,,0.00,WUHU216HW,2013-07-12 21:27:00,
2013-07-12 14:32:00,61.3,51.6,29.98,SW,225,1.1,5.8,70,0.00,,,0.00,WUHU216HW,2013-07-12 21:32:00,
2013-07-12 14:37:00,61.5,51.8,29.98,SW,225,1.6,4.9,70,0.00,,,0.00,WUHU216HW,2013-07-12 21:37:00,
2013-07-12 14:43:00,61.5,51.8,29.98,SW,225,4.7,4.7,70,0.00,,,0.00,WUHU216HW,2013-07-12 21:43:00,
2013-07-12 14:48:00,61.5,51.8,29.99,SSW,203,1.3,4.9,70,0.00,,,0.00,WUHU216HW,2013-07-12 21:48:00,
2013-07-12 14:53:00,61.5,51.8,29.99,SW,225,1.3,4.9,70,0.00,,,0.00,WUHU216HW,2013-07-12 21:53:00,
2013-07-12 14:58:00,61.5,51.8,29.98,SW,225,2.5,4.3,70,0.00,,,0.00,WUHU216HW,2013-07-12 21:58:00,
2013-07-12 15:03:00,61.5,51.8,29.99,SW,225,2.5,3.6,70,0.00,,,0.00,WUHU216HW,2013-07-12 22:03:00,
2013-07-12 15:08:00,61.5,51.8,29.99,SW,225,2.2,3.6,70,0.00,,,0.00,WUHU216HW,2013-07-12 22:08:00,
2013-07-12 15:13:00,61.5,51.8,29.99,SW,225,3.1,3.1,70,0.00,,,0.00,WUHU216HW,2013-07-12 22:13:00,
2013-07-12 15:18:00,61.5,51.8,29.99,SW,225,3.4,5.4,70,0.00,,,0.00,WUHU216HW,2013-07-12 22:18:00,
2013-07-12 15:24:00,61.5,51.8,29.99,SW,225,3.6,5.4,70,0.00,,,0.00,WUHU216HW,2013-07-12 22:24:00,
2013-07-12 15:29:00,61.3,51.6,29.99,SW,225,2.2,3.6,70,0.00,,,0.00,WUHU216HW,2013-07-12 22:29:00,
2013-07-12 15:34:00,61.3,51.6,29.99,SW,225,4.0,4.3,70,0.00,,,0.00,WUHU216HW,2013-07-12 22:34:00,
2013-07-12 15:40:00,61.3,51.6,29.99,SW,225,1.8,4.3,70,0.00,,,0.00,WUHU216HW,2013-07-12 22:40:00,
2013-07-12 15:45:00,61.3,52.0,29.99,West,270,0.7,2.5,71,0.00,,,0.00,WUHU216HW,2013-07-12 22:45:00,
2013-07-12 15:50:00,61.3,51.6,29.99,SE,135,1.1,2.0,70,0.00,,,0.00,WUHU216HW,2013-07-12 22:50:00,
2013-07-12 15:56:00,61.5,51.8,29.99,ESE,113,0.0,1.3,70,0.00,,,0.00,WUHU216HW,2013-07-12 22:56:00,
2013-07-12 16:01:00,61.5,51.8,29.99,South,180,0.9,1.6,70,0.00,,,0.00,WUHU216HW,2013-07-12 23:01:00,
2013-07-12 16:06:00,61.7,52.0,29.99,SSW,203,1.8,2.5,70,0.00,,,0.00,WUHU216HW,2013-07-12 23:06:00,
2013-07-12 16:11:00,61.7,52.0,29.99,SW,225,3.4,4.7,70,0.00,,,0.00,WUHU216HW,2013-07-12 23:11:00,
2013-07-12 16:16:00,61.7,52.0,29.99,SW,225,5.6,5.6,70,0.00,,,0.00,WUHU216HW,2013-07-12 23:16:00,
2013-07-12 16:21:00,61.7,52.0,29.99,SSW,203,1.1,5.6,70,0.00,,,0.00,WUHU216HW,2013-07-12 23:21:00,
2013-07-12 16:27:00,61.5,51.4,29.99,WSW,248,5.4,5.4,69,0.00,,,0.00,WUHU216HW,2013-07-12 23:27:00,
2013-07-12 16:32:00,61.5,51.4,29.99,SW,225,3.8,6.9,69,0.00,,,0.00,WUHU216HW,2013-07-12 23:32:00,
2013-07-12 16:34:00,61.5,51.8,29.99,SW,225,2.5,6.9,70,0.00,,,0.00,WUHU216HW,2013-07-12 23:34:00,
2013-07-12 16:36:00,61.5,51.4,29.99,SW,225,2.5,6.9,69,0.00,,,0.00,WUHU216HW,2013-07-12 23:36:00,
2013-07-12 16:37:00,61.5,51.8,29.99,SW,225,2.2,6.9,70,0.00,,,0.00,WUHU216HW,2013-07-12 23:37:00,
2013-07-12 16:39:00,61.5,51.8,29.99,SW,225,2.5,6.9,70,0.00,,,0.00,WUHU216HW,2013-07-12 23:39:00,
2013-07-12 16:40:00,61.5,51.8,29.99,WNW,293,0.9,6.9,70,0.00,,,0.00,WUHU216HW,2013-07-12 23:40:00,
2013-07-12 16:42:00,61.5,51.8,29.99,NNW,338,0.0,4.7,70,0.00,,,0.00,WUHU216HW,2013-07-12 23:42:00,
2013-07-12 16:43:00,61.5,51.8,29.99,SW,225,1.6,4.0,70,0.00,,,0.00,WUHU216HW,2013-07-12 23:43:00,
2013-07-12 16:44:00,61.5,51.8,29.99,SW,225,2.0,4.0,70,0.00,,,0.00,WUHU216HW,2013-07-12 23:44:00,
2013-07-12 16:45:00,61.5,51.8,29.99,SW,225,4.7,5.4,70,0.00,,,0.00,WUHU216HW,2013-07-12 23:45:00,
2013-07-12 16:47:00,61.5,51.8,29.99,SW,225,4.5,5.4,70,0.00,,,0.00,WUHU216HW,2013-07-12 23:47:00,
2013-07-12 16:48:00,61.7,52.0,29.99,SW,225,4.0,5.4,70,0.00,,,0.00,WUHU216HW,2013-07-12 23:48:00,
2013-07-12 16:50:00,61.5,51.8,29.99,SW,225,3.8,5.4,70,0.00,,,0.00,WUHU216HW,2013-07-12 23:50:00,
2013-07-12 16:51:00,61.5,51.8,29.99,SW,225,3.1,5.4,70,0.00,,,0.00,WUHU216HW,2013-07-12 23:51:00,
2013-07-12 16:53:00,61.7,52.0,29.99,SW,225,1.6,5.4,70,0.00,,,0.00,WUHU216HW,2013-07-12 23:53:00,
2013-07-12 16:54:00,61.5,51.8,29.99,SW,225,3.1,5.4,70,0.00,,,0.00,WUHU216HW,2013-07-12 23:54:00,
2013-07-12 16:56:00,61.5,51.8,29.99,SW,225,2.9,4.7,70,0.00,,,0.00,WUHU216HW,2013-07-12 23:56:00,
2013-07-12 16:57:00,61.5,51.8,29.99,SW,225,3.1,4.7,70,0.00,,,0.00,WUHU216HW,2013-07-12 23:57:00,
2013-07-12 16:59:00,61.5,51.8,29.99,SW,225,2.9,4.7,70,0.00,,,0.00,WUHU216HW,2013-07-12 23:59:00,
2013-07-12 17:00:00,61.5,51.8,29.99,SW,225,4.7,6.7,70,0.00,,,0.00,WUHU216HW,2013-07-13 00:00:00,
2013-07-12 17:09:00,61.5,51.8,29.99,SW,225,2.2,6.7,70,0.00,,,0.00,WUHU216HW,2013-07-13 00:09:00,
2013-07-12 17:14:00,61.5,51.8,29.99,SW,225,2.5,4.0,70,0.00,,,0.00,WUHU216HW,2013-07-13 00:14:00,
2013-07-12 17:19:00,61.7,52.3,29.99,SW,225,1.1,3.1,71,0.00,,,0.00,WUHU216HW,2013-07-13 00:19:00,
2013-07-12 17:25:00,61.7,52.3,29.99,SW,225,0.9,2.7,71,0.00,,,0.00,WUHU216HW,2013-07-13 00:25:00,
2013-07-12 17:30:00,61.9,52.2,29.99,South,180,1.3,2.7,70,0.00,,,0.00,WUHU216HW,2013-07-13 00:30:00,
2013-07-12 17:35:00,61.9,52.2,29.99,SSE,158,0.9,2.0,70,0.00,,,0.00,WUHU216HW,2013-07-13 00:35:00,
2013-07-12 17:40:00,61.9,52.2,29.99,SSE,158,0.7,1.8,70,0.00,,,0.00,WUHU216HW,2013-07-13 00:40:00,
2013-07-12 17:45:00,61.9,52.2,29.99,South,180,0.9,1.3,70,0.00,,,0.00,WUHU216HW,2013-07-13 00:45:00,
2013-07-12 17:50:00,62.0,52.2,29.99,South,180,0.4,1.3,70,0.00,,,0.00,WUHU216HW,2013-07-13 00:50:00,
2013-07-12 17:55:00,62.0,52.2,29.98,SW,225,2.2,2.2,70,0.00,,,0.00,WUHU216HW,2013-07-13 00:55:00,
2013-07-12 18:00:00,62.2,52.1,29.99,SW,225,0.2,2.2,69,0.00,,,0.00,WUHU216HW,2013-07-13 01:00:00,
2013-07-12 18:06:00,62.2,52.1,29.99,SW,225,0.4,2.2,69,0.00,,,0.00,WUHU216HW,2013-07-13 01:06:00,
2013-07-12 18:11:00,62.2,52.1,29.98,South,180,0.9,1.8,69,0.00,,,0.00,WUHU216HW,2013-07-13 01:11:00,
2013-07-12 18:16:00,62.2,52.1,29.99,South,180,0.2,1.8,69,0.00,,,0.00,WUHU216HW,2013-07-13 01:16:00,
2013-07-12 18:21:00,62.2,52.1,29.98,South,180,0.9,1.3,69,0.00,,,0.00,WUHU216HW,2013-07-13 01:21:00,
2013-07-12 18:26:00,62.4,52.2,29.98,SW,225,0.9,2.5,69,0.00,,,0.00,WUHU216HW,2013-07-13 01:26:00,
2013-07-12 18:31:00,62.4,52.2,29.98,SSW,203,0.0,2.5,69,0.00,,,0.00,WUHU216HW,2013-07-13 01:31:00,
2013-07-12 18:36:00,62.4,52.2,29.98,North,0,0.4,2.2,69,0.00,,,0.00,WUHU216HW,2013-07-13 01:36:00,
2013-07-12 18:41:00,62.4,52.2,29.98,SE,135,0.4,2.2,69,0.00,,,0.00,WUHU216HW,2013-07-13 01:41:00,
2013-07-12 18:46:00,62.4,52.2,29.98,SE,135,0.2,1.8,69,0.00,,,0.00,WUHU216HW,2013-07-13 01:46:00,
2013-07-12 18:52:00,62.4,52.2,29.98,SE,135,0.0,1.6,69,0.00,,,0.00,WUHU216HW,2013-07-13 01:52:00,
2013-07-12 18:57:00,62.4,52.2,29.98,ENE,68,0.0,1.1,69,0.00,,,0.00,WUHU216HW,2013-07-13 01:57:00,
2013-07-12 19:02:00,62.4,52.2,29.98,NNW,338,0.4,1.1,69,0.00,,,0.00,WUHU216HW,2013-07-13 02:02:00,
2013-07-12 19:07:00,62.4,52.6,29.98,North,0,0.0,0.7,70,0.00,,,0.00,WUHU216HW,2013-07-13 02:07:00,
2013-07-12 19:12:00,62.2,52.4,29.98,West,270,0.4,0.7,70,0.00,,,0.00,WUHU216HW,2013-07-13 02:12:00,
2013-07-12 19:17:00,62.2,52.4,29.99,West,270,0.0,0.7,70,0.00,,,0.00,WUHU216HW,2013-07-13 02:17:00,
2013-07-12 19:22:00,62.2,52.4,29.99,West,270,0.0,0.4,70,0.00,,,0.00,WUHU216HW,2013-07-13 02:22:00,
2013-07-12 19:27:00,62.0,52.2,29.99,WNW,293,0.0,0.2,70,0.00,,,0.00,WUHU216HW,2013-07-13 02:27:00,
2013-07-12 19:32:00,62.0,52.6,29.99,WNW,293,0.0,0.0,71,0.00,,,0.00,WUHU216HW,2013-07-13 02:32:00,
2013-07-12 19:37:00,61.9,52.5,29.99,WNW,293,0.0,0.4,71,0.00,,,0.00,WUHU216HW,2013-07-13 02:37:00,
2013-07-12 19:43:00,61.7,52.3,29.99,WNW,293,0.0,0.4,71,0.00,,,0.00,WUHU216HW,2013-07-13 02:43:00,
2013-07-12 19:48:00,61.5,52.5,29.99,WNW,293,0.0,0.0,72,0.00,,,0.00,WUHU216HW,2013-07-13 02:48:00,
2013-07-12 19:53:00,61.3,52.7,29.99,WNW,293,0.0,0.0,73,0.00,,,0.00,WUHU216HW,2013-07-13 02:53:00,
2013-07-12 19:58:00,61.1,52.5,29.99,WNW,293,0.0,0.0,73,0.00,,,0.00,WUHU216HW,2013-07-13 02:58:00,
2013-07-12 20:03:00,60.8,52.2,29.99,WNW,293,0.0,0.0,73,0.00,,,0.00,WUHU216HW,2013-07-13 03:03:00,
2013-07-12 20:08:00,60.6,52.0,29.99,WNW,293,0.2,0.2,73,0.00,,,0.00,WUHU216HW,2013-07-13 03:08:00,
2013-07-12 20:13:00,60.4,51.8,29.99,WNW,293,0.2,0.4,73,0.00,,,0.00,WUHU216HW,2013-07-13 03:13:00,
2013-07-12 20:18:00,60.1,51.5,29.99,NW,315,0.2,0.4,73,0.00,,,0.00,WUHU216HW,2013-07-13 03:18:00,
2013-07-12 20:23:00,59.9,51.3,29.99,NNW,338,0.0,0.7,73,0.00,,,0.00,WUHU216HW,2013-07-13 03:23:00,
2013-07-12 20:28:00,59.7,51.1,29.99,North,0,0.0,0.7,73,0.00,,,0.00,WUHU216HW,2013-07-13 03:28:00,
2013-07-12 20:33:00,59.3,50.8,29.99,NNW,338,0.0,0.7,73,0.00,,,0.00,WUHU216HW,2013-07-13 03:33:00,
2013-07-12 20:38:00,59.0,50.8,29.99,NNW,338,0.2,0.4,74,0.00,,,0.00,WUHU216HW,2013-07-13 03:38:00,
2013-07-12 20:43:00,58.6,50.4,29.99,NW,315,0.4,0.4,74,0.00,,,0.00,WUHU216HW,2013-07-13 03:43:00,
2013-07-12 20:49:00,58.4,50.3,30.00,NNW,338,0.0,0.4,74,0.00,,,0.00,WUHU216HW,2013-07-13 03:49:00,
2013-07-12 20:54:00,57.9,50.1,30.00,NNW,338,0.2,0.4,75,0.00,,,0.00,WUHU216HW,2013-07-13 03:54:00,
2013-07-12 20:59:00,57.7,49.9,30.00,NNW,338,0.2,0.4,75,0.00,,,0.00,WUHU216HW,2013-07-13 03:59:00,
2013-07-12 21:01:00,57.7,50.3,30.00,NNW,338,0.2,0.4,76,0.00,,,0.00,WUHU216HW,2013-07-13 04:01:00,
2013-07-12 21:02:00,57.5,50.1,30.00,NNW,338,0.4,0.4,76,0.00,,,0.00,WUHU216HW,2013-07-13 04:02:00,
2013-07-12 21:07:00,57.4,50.0,30.00,NNW,338,0.0,0.4,76,0.00,,,0.00,WUHU216HW,2013-07-13 04:07:00,
2013-07-12 21:12:00,57.0,49.6,30.00,NNW,338,0.2,0.4,76,0.00,,,0.00,WUHU216HW,2013-07-13 04:12:00,
2013-07-12 21:17:00,56.8,49.4,30.00,North,0,0.2,0.7,76,0.00,,,0.00,WUHU216HW,2013-07-13 04:17:00,
2013-07-12 21:22:00,56.5,49.5,30.01,North,0,0.2,0.7,77,0.00,,,0.00,WUHU216HW,2013-07-13 04:22:00,
2013-07-12 21:27:00,56.3,49.3,30.01,NW,315,0.4,0.7,77,0.00,,,0.00,WUHU216HW,2013-07-13 04:27:00,
2013-07-12 21:32:00,55.9,49.2,30.01,NW,315,0.7,0.9,78,0.00,,,0.00,WUHU216HW,2013-07-13 04:32:00,
2013-07-12 21:37:00,55.7,49.0,30.01,NW,315,0.4,1.1,78,0.00,,,0.00,WUHU216HW,2013-07-13 04:37:00,
2013-07-12 21:42:00,55.6,49.2,30.02,NNW,338,0.0,1.1,79,0.00,,,0.00,WUHU216HW,2013-07-13 04:42:00,
2013-07-12 21:47:00,55.4,49.0,30.02,NNW,338,0.0,0.7,79,0.00,,,0.00,WUHU216HW,2013-07-13 04:47:00,
2013-07-12 21:52:00,55.6,49.2,30.02,NNW,338,0.0,0.4,79,0.00,,,0.00,WUHU216HW,2013-07-13 04:52:00,
2013-07-12 21:57:00,55.4,49.0,30.02,NNW,338,0.4,0.4,79,0.00,,,0.00,WUHU216HW,2013-07-13 04:57:00,
2013-07-12 22:02:00,55.4,49.0,30.02,NW,315,0.7,0.7,79,0.00,,,0.00,WUHU216HW,2013-07-13 05:02:00,
2013-07-12 22:07:00,55.4,49.0,30.03,NNW,338,0.0,0.9,79,0.00,,,0.00,WUHU216HW,2013-07-13 05:07:00,
2013-07-12 22:12:00,55.2,48.9,30.03,NNW,338,0.0,0.9,79,0.00,,,0.00,WUHU216HW,2013-07-13 05:12:00,
2013-07-12 22:17:00,55.2,49.2,30.03,North,0,0.4,0.7,80,0.00,,,0.00,WUHU216HW,2013-07-13 05:17:00,
2013-07-12 22:22:00,55.0,49.0,30.03,NNW,338,0.2,0.7,80,0.00,,,0.00,WUHU216HW,2013-07-13 05:22:00,
2013-07-12 22:27:00,55.0,49.3,30.03,NNW,338,0.0,0.4,81,0.00,,,0.00,WUHU216HW,2013-07-13 05:27:00,
2013-07-12 22:32:00,54.7,49.0,30.03,NW,315,0.2,0.4,81,0.00,,,0.00,WUHU216HW,2013-07-13 05:32:00,
2013-07-12 22:37:00,54.7,49.0,30.03,North,0,0.2,0.4,81,0.00,,,0.00,WUHU216HW,2013-07-13 05:37:00,
2013-07-12 22:42:00,54.5,48.8,30.03,North,0,0.0,0.4,81,0.00,,,0.00,WUHU216HW,2013-07-13 05:42:00,
2013-07-12 22:47:00,54.3,48.6,30.03,North,0,0.4,0.7,81,0.00,,,0.00,WUHU216HW,2013-07-13 05:47:00,
2013-07-12 22:52:00,54.1,48.4,30.03,NNW,338,0.2,0.7,81,0.00,,,0.00,WUHU216HW,2013-07-13 05:52:00,
2013-07-12 22:57:00,53.9,48.2,30.04,NNW,338,0.0,0.4,81,0.00,,,0.00,WUHU216HW,2013-07-13 05:57:00,
2013-07-12 23:02:00,53.8,48.1,30.04,North,0,0.4,0.4,81,0.00,,,0.00,WUHU216HW,2013-07-13 06:02:00,
2013-07-12 23:07:00,53.6,47.9,30.04,North,0,0.2,0.4,81,0.00,,,0.00,WUHU216HW,2013-07-13 06:07:00,
2013-07-12 23:12:00,53.6,48.3,30.04,NNW,338,0.2,0.4,82,0.00,,,0.00,WUHU216HW,2013-07-13 06:12:00,
2013-07-12 23:17:00,53.4,48.1,30.04,NNW,338,0.0,0.4,82,0.00,,,0.00,WUHU216HW,2013-07-13 06:17:00,
2013-07-12 23:22:00,53.2,47.9,30.04,NW,315,0.4,0.4,82,0.00,,,0.00,WUHU216HW,2013-07-13 06:22:00,
2013-07-12 23:27:00,53.0,47.7,30.04,NW,315,0.2,0.7,82,0.00,,,0.00,WUHU216HW,2013-07-13 06:27:00,
2013-07-12 23:32:00,52.9,47.6,30.04,NW,315,0.2,0.7,82,0.00,,,0.00,WUHU216HW,2013-07-13 06:32:00,
2013-07-12 23:37:00,52.9,47.6,30.04,NW,315,0.2,0.4,82,0.00,,,0.00,WUHU216HW,2013-07-13 06:37:00,
2013-07-12 23:42:00,52.7,47.4,30.04,NNW,338,0.4,0.4,82,0.00,,,0.00,WUHU216HW,2013-07-13 06:42:00,
2013-07-12 23:47:00,52.7,47.4,30.05,North,0,0.0,0.9,82,0.00,,,0.00,WUHU216HW,2013-07-13 06:47:00,
2013-07-12 23:52:00,52.7,47.7,30.05,North,0,1.1,1.1,83,0.00,,,0.00,WUHU216HW,2013-07-13 06:52:00,
2013-07-12 23:57:00,52.5,47.5,30.05,NNW,338,0.0,1.1,83,0.00,,,0.00,WUHU216HW,2013-07-13 06:57:00,